This is the latest recevied weather packets stored in our database for station/object OK1FET-4. If no packets are shown the sender has not sent any weather packets the latest 10 day(s).
| Time | Temp. | Humidity | Pressure | Rain* | Wind** | Luminosity | Snow |
|---|---|---|---|---|---|---|---|
| 1788264965 | 23.33° C | 49% | 1021.5 hPa | - | - | - | - |
| 1788264664 | 22.22° C | 50% | 1021.6 hPa | - | - | - | - |
| 1788264363 | 23.33° C | 48% | 1021.6 hPa | - | - | - | - |
| 1788264061 | 23.33° C | 49% | 1021.6 hPa | - | - | - | - |
| 1788263760 | 23.89° C | 50% | 1021.7 hPa | - | - | - | - |
| 1788263459 | 23.33° C | 53% | 1021.6 hPa | - | - | - | - |
| 1788263158 | 22.22° C | 53% | 1021.7 hPa | - | - | - | - |
| 1788262857 | 21.67° C | 53% | 1021.8 hPa | - | - | - | - |
| 1788262556 | 21.11° C | 53% | 1021.7 hPa | - | - | - | - |
| 1788262255 | 21.11° C | 52% | 1021.7 hPa | - | - | - | - |
| 1788261954 | 21.67° C | 53% | 1021.8 hPa | - | - | - | - |
| 1788261652 | 21.67° C | 54% | 1021.8 hPa | - | - | - | - |
| 1788261360 | 21.67° C | 53% | 1021.8 hPa | - | - | - | - |
| 1788261050 | 21.11° C | 54% | 1021.8 hPa | - | - | - | - |
| 1788260749 | 21.11° C | 55% | 1021.8 hPa | - | - | - | - |
| 1788260465 | 21.67° C | 53% | 1021.8 hPa | - | - | - | - |
| 1788260147 | 21.67° C | 54% | 1021.7 hPa | - | - | - | - |
| 1788259846 | 21.11° C | 54% | 1021.8 hPa | - | - | - | - |
| 1788259550 | 21.11° C | 55% | 1021.8 hPa | - | - | - | - |
| 1788259244 | 21.11° C | 55% | 1021.8 hPa | - | - | - | - |
| 1788258943 | 21.67° C | 54% | 1021.8 hPa | - | - | - | - |
| 1788258641 | 21.67° C | 56% | 1021.9 hPa | - | - | - | - |
| 1788258341 | 21.11° C | 57% | 1021.9 hPa | - | - | - | - |
| 1788258040 | 21.11° C | 56% | 1021.9 hPa | - | - | - | - |
| 1788257738 | 20.56° C | 59% | 1021.9 hPa | - | - | - | - |
* Rain since midnight (hover to see other rain measurements)
** Current wind speed in m/s (hover to see current wind gust speed)